Tracking 31027 objects as of 19-Jul-2025
HD Live streaming from Space Station
objects crossing your sky now

CZ-2C DEB

Track CZ-2C DEB now!
10-day predictions


NORAD ID: 37768
Int'l Code: 2011-039D
Perigee: 668.7 km
Apogee: 848.4 km
Inclination: 98.3 °
Period: 99.9 minutes
Semi major axis: 7129 km
RCS: 0.0872 m2 (small)
Launch date: July 29, 2011
Source: People's Republic of China (PRC)
Launch site: Jiuquan Satellite Launch Center, China (JSC)

Note: This is SATELLITE DEBRIS
Your satellite tracking list
SL-12 R/B(AUX MOTOR)
Track 1 satellite(s)




NASA's NSSDC Master Catalog

Two Line Element Set (TLE):
1 37768U 11039D   25199.38513108  .00001458  00000-0  41551-3 0  9997
2 37768  98.3253 150.8735 0126059 164.7495 314.8485 14.42149985729111
Source of the keplerian elements: AFSPC